User: anonymous
Location: Delta State University
(33.7460°N, 90.7320°W)
Time: 11:30:45
(UTC-05:00)
Language:

Iridium 13 - Orbit

View from above orbital plane
View from above orbital plane
View from above satellite
View from above satellite

Ground track
Ground track

The orbit data is extracted from the following two-line orbital elements,

1 24840U 97030E   14275.42230675  .00000512  00000-0  17578-3 0  9589
2 24840 086.3983 043.5101 0002262 114.8980 304.2826 14.34221401905229
Epoch (UTC): 02 October 2014 10:08:07
Eccentricity: 0.0002262
inclination: 86.3983°
perigee height: 776 km
apogee height: 779 km
right ascension of ascending node: 43.5101°
argument of perigee: 114.8980°
revolutions per day: 14.34221401
mean anomaly at epoch: 304.2826°
orbit number at epoch: 90522

The dashed part of the orbit path shows where the satellite is in the earth's shadow,  

DLR